#timestamp,LO_Frequency,Hit,StdDev 
1534348815.8,286047001.2,N
1534348835.6,286047002.0,N
1534348855.5,286047001.6,N
1534348875.3,286047004.3,N
1534348895.1,286047001.3,N
1534348915.9,286047003.1,N
1534348935.7,286047005.5,Y
1534348955.5,286047003.8,P
1534348975.4,286047004.2,N
1534348995.2,286047002.0,N
1534349015.1,286047002.8,N
1534349016.0,286047002.8,N
1534349035.8,286047000.5,N
1534349055.6,286047000.5,N
1534349075.5,286046998.7,N
1534349095.3,286047002.2,N
1534349115.1,286047002.4,N
1534349135.9,286047000.5,N
1534349155.7,286046999.9,N
1534349175.6,286047000.8,N
1534349195.4,286046999.3,N
1534349215.2,286046998.3,N
1534349235.1,286046999.0,N
1534349236.0,286046999.0,N
1534349255.8,286047000.8,N
1534349275.6,286047000.4,N
1534349295.5,286047002.4,N
1534349315.3,286047002.4,N
1534349335.2,286046999.4,N
1534349355.9,286046999.3,N
1534349375.7,286046999.4,N
1534349395.6,286046999.3,N
1534349415.4,286047000.9,N
1534349435.2,286047001.2,N
1534349455.1,286047002.3,N
1534349456.0,286047002.3,N
1534349475.8,286047004.3,N
1534349495.7,286047004.0,N
1534349515.5,286047001.9,N
1534349535.3,286047002.8,N
1534349555.2,286047002.5,N
1534349575.9,286047001.7,N
1534349595.7,286047002.2,N
1534349615.6,286047005.3,Y
1534349635.4,286047004.2,P
1534349655.3,286047004.1,N
1534349675.1,286047004.0,N
1534349676.0,286047004.0,N
1534349695.8,286047001.3,N
1534349715.7,286047001.6,N
1534349735.5,286047004.4,Y
1534349755.3,286047000.4,P
1534349775.2,286047000.2,N
1534349795.0,286046998.6,N
1534349795.9,286046998.6,N
1534349815.8,286046998.6,N
1534349835.6,286046998.8,N
1534349855.4,286047000.6,N
1534349875.3,286047000.7,N
1534349895.1,286046999.7,N
1534349915.8,286047001.6,N
1534349935.7,286047002.1,N
1534349955.5,286047002.0,N
1534349975.4,286047002.0,N
1534349995.2,286047002.5,N
1534350015.0,286047002.2,N
1534350015.9,286047002.2,N
1534350035.8,286047002.6,N
1534350055.6,286047004.0,N
1534350075.4,286047002.1,N
1534350095.3,286047003.8,N
1534350115.1,286047001.8,N
1534350135.8,286047001.9,N
1534350155.7,286047001.5,N
1534350175.5,286046999.7,N
1534350195.4,286047002.2,N
1534350215.2,286047000.1,N
1534350235.0,286047002.2,N
1534350235.9,286047002.2,N
1534350255.8,286047004.1,N
1534350275.6,286047004.1,N
1534350295.4,286047005.3,Y
1534350315.3,286047005.8,P
1534350335.1,286047005.9,N
1534350355.9,286047003.8,N
1534350375.7,286047003.5,N
1534350395.5,286047006.0,Y
1534350415.4,286047002.7,P
1534350435.2,286047000.2,N
1534350455.0,286047001.2,N
1534350455.9,286047001.2,N
1534350475.8,286047000.2,N
1534350495.6,286047000.9,N
1534350515.5,286046999.0,N
1534350535.3,286046996.6,N
1534350555.1,286046998.2,N
1534350575.9,286047000.2,N
1534350595.7,286047004.0,N
1534350615.5,286047001.5,N
1534350635.4,286047002.6,N
1534350655.2,286047002.7,N
1534350675.1,286047000.3,N
1534350676.0,286047000.3,N
1534350695.8,286047002.1,N
1534350715.6,286047002.5,N
1534350735.5,286047002.5,N
1534350755.3,286047001.8,N
1534350775.1,286047001.5,N
1534350795.9,286047001.6,N
1534350815.7,286047004.0,N
1534350835.6,286047003.6,N
1534350855.4,286047004.1,N
1534350875.2,286047001.3,N
1534350895.1,286047002.5,N
1534350896.0,286047002.5,N
1534350915.8,286047000.1,N
1534350935.6,286047002.5,N
1534350955.5,286047001.6,N
1534350975.3,286047002.0,N
1534350995.2,286047005.6,Y
1534351015.9,286047003.1,P
1534351035.7,286047003.7,P
1534351055.6,286047001.7,N
1534351075.4,286047001.6,N
1534351095.2,286047002.1,N
1534351115.1,286047004.4,Y
1534351116.0,286047004.4,P
1534351135.8,286047000.8,N
1534351155.7,286046999.2,N
1534351175.5,286047001.2,N
1534351195.3,286046999.8,N
1534351215.2,286047000.0,N
1534351235.0,286046999.9,N
1534351235.9,286046999.9,N
1534351255.8,286047000.0,N
1534351275.6,286047000.3,N
1534351295.4,286047003.9,N
1534351315.3,286047005.5,Y
1534351335.1,286047003.1,P
1534351355.8,286047003.7,P
1534351375.7,286047003.3,N
1534351395.5,286047003.3,Y
1534351415.4,286047002.0,P
1534351435.2,286047003.9,P
1534351455.0,286047003.1,P
1534351455.9,286047003.1,Y
1534351475.8,286046999.7,P
1534351495.6,286047000.5,N
1534351515.5,286046998.4,N
1534351535.3,286046999.0,N
1534351555.1,286046997.9,N
1534351575.9,286046995.5,N
1534351595.7,286046995.4,N
1534351615.5,286046998.8,N
1534351635.4,286047002.2,N
1534351655.2,286047001.5,N
1534351675.1,286047001.7,N
1534351676.0,286047001.7,N
1534351695.8,286047001.8,N
1534351715.6,286047002.5,N
1534351735.5,286047000.6,N
1534351755.3,286047001.1,N
1534351775.1,286046998.8,N
1534351795.9,286046999.0,N
1534351815.7,286047000.6,N
1534351835.5,286047001.4,N
1534351855.4,286047002.7,N
1534351875.2,286047002.6,N
1534351895.1,286047002.3,N
1534351896.0,286047002.3,N
1534351915.8,286047002.8,N
1534351935.6,286047001.8,N
1534351955.5,286047003.5,N
1534351975.3,286047004.0,N
1534351995.1,286047003.5,N
1534352015.9,286047007.6,Y
1534352035.7,286047005.7,P
1534352055.6,286047006.6,N
1534352075.4,286047008.9,P
1534352095.2,286047009.0,Y
1534352115.1,286047004.3,P
1534352116.0,286047004.3,P
1534352135.8,286047000.2,N
1534352155.6,286047002.3,N
1534352175.5,286047001.0,N
1534352195.3,286046998.2,N
1534352215.2,286047001.1,N
1534352235.9,286046999.0,N
1534352255.7,286047001.2,N
1534352275.6,286047000.3,N
1534352295.4,286047002.4,N
1534352315.2,286047003.8,N
1534352335.1,286047001.7,N
1534352336.0,286047001.7,N
1534352355.8,286047002.4,N
1534352375.7,286047004.3,N
1534352395.5,286047001.5,N
